TimeEST,TemperatureF,Dew PointF,Humidity,Sea Level PressureIn,VisibilityMPH,Wind Direction,Wind SpeedMPH,Gust SpeedMPH,PrecipitationIn,Events,Conditions,WindDirDegrees,DateUTC
12:53 AM,64.9,64.9,100,30.12,10.0,NW,3.5,-,N/A,,Mostly Cloudy,320,2013-01-20 05:53:00
1:14 AM,64.4,64.4,100,30.11,10.0,Calm,Calm,-,N/A,,Scattered Clouds,0,2013-01-20 06:14:00
1:30 AM,64.4,64.4,100,30.11,10.0,Calm,Calm,-,N/A,,Mostly Cloudy,0,2013-01-20 06:30:00
1:53 AM,64.9,64.0,97,30.11,10.0,NW,3.5,-,N/A,,Overcast,320,2013-01-20 06:53:00
2:34 AM,64.4,64.4,100,30.10,10.0,Calm,Calm,-,N/A,,Overcast,0,2013-01-20 07:34:00
2:53 AM,64.0,64.0,100,30.10,10.0,Calm,Calm,-,N/A,,Overcast,0,2013-01-20 07:53:00
3:53 AM,64.0,64.0,100,30.09,10.0,NNW,3.5,-,N/A,,Overcast,340,2013-01-20 08:53:00
4:53 AM,64.0,64.0,100,30.10,10.0,Calm,Calm,-,N/A,,Overcast,0,2013-01-20 09:53:00
5:53 AM,64.0,64.0,100,30.12,10.0,West,4.6,-,N/A,,Overcast,270,2013-01-20 10:53:00
6:53 AM,64.0,64.0,100,30.12,10.0,NW,8.1,-,N/A,,Overcast,310,2013-01-20 11:53:00
7:02 AM,64.4,64.4,100,30.13,1.0,NW,3.5,-,N/A,,Overcast,310,2013-01-20 12:02:00
7:53 AM,64.9,64.9,100,30.14,1.0,NNW,3.5,-,N/A,,Overcast,330,2013-01-20 12:53:00
8:00 AM,64.4,64.4,100,30.14,10.0,NNW,4.6,-,N/A,,Overcast,330,2013-01-20 13:00:00
8:07 AM,66.2,66.2,100,30.15,2.0,NNW,3.5,-,N/A,,Mostly Cloudy,340,2013-01-20 13:07:00
8:53 AM,66.9,66.9,100,30.16,2.0,NNW,3.5,-,N/A,,Mostly Cloudy,340,2013-01-20 13:53:00
8:56 AM,66.2,66.2,100,30.16,3.0,North,3.5,-,N/A,,Scattered Clouds,350,2013-01-20 13:56:00
9:53 AM,73.0,66.9,81,30.17,3.0,Calm,Calm,-,N/A,,Scattered Clouds,0,2013-01-20 14:53:00
10:53 AM,77.0,66.0,69,30.16,10.0,NNW,3.5,-,N/A,,Clear,340,2013-01-20 15:53:00
11:53 AM,75.9,64.9,69,30.12,10.0,Calm,Calm,-,N/A,,Clear,0,2013-01-20 16:53:00
12:53 PM,81.0,63.0,54,30.08,10.0,North,4.6,-,N/A,,Clear,360,2013-01-20 17:53:00
1:53 PM,79.0,59.0,50,30.05,10.0,Calm,Calm,-,N/A,,Mostly Cloudy,0,2013-01-20 18:53:00
2:53 PM,78.1,64.9,64,30.04,10.0,East,8.1,-,N/A,,Overcast,100,2013-01-20 19:53:00
3:53 PM,77.0,64.9,66,30.04,10.0,East,8.1,-,N/A,,Overcast,80,2013-01-20 20:53:00
4:53 PM,75.0,64.9,71,30.06,10.0,ESE,6.9,-,N/A,,Overcast,110,2013-01-20 21:53:00
5:53 PM,73.9,64.9,73,30.06,10.0,ENE,8.1,-,N/A,,Mostly Cloudy,70,2013-01-20 22:53:00
6:53 PM,73.0,66.0,79,30.06,10.0,East,3.5,-,N/A,,Mostly Cloudy,90,2013-01-20 23:53:00
7:53 PM,72.0,64.9,78,30.07,10.0,Calm,Calm,-,N/A,,Mostly Cloudy,0,2013-01-21 00:53:00
8:53 PM,70.0,64.0,81,30.08,10.0,Calm,Calm,-,N/A,,Clear,0,2013-01-21 01:53:00
9:53 PM,70.0,64.9,84,30.08,10.0,NNW,3.5,-,N/A,,Clear,340,2013-01-21 02:53:00
10:53 PM,69.1,66.0,90,30.09,10.0,Calm,Calm,-,N/A,,Clear,0,2013-01-21 03:53:00
11:53 PM,69.1,66.0,90,30.07,10.0,North,4.6,-,N/A,,Overcast,360,2013-01-21 04:53:00